| time (UTC) | temp F | wind direction | speed MPH | gust MPH | rain 1hr in | rain 24hr in | rain mn in | humidity % | barometer mb |
| 20260506190023 | 60 | 224 | 5.0 | 12.0 | 0.00 | 0.00 | 0.00 | 26 | 1013.6 |
| 20260506184526 | 59 | 181 | 5.0 | 12.0 | 0.00 | 0.00 | 0.00 | 28 | 1014.0 |
| 20260506183017 | 58 | 238 | 6.0 | 10.0 | 0.00 | 0.00 | 0.00 | 27 | 1014.3 |
| 20260506181513 | 57 | 245 | 7.0 | 12.0 | 0.00 | 0.00 | 0.00 | 28 | 1014.6 |
| 20260506180017 | 56 | 198 | 6.0 | 12.0 | 0.00 | 0.00 | 0.00 | 26 | 1014.9 |
| 20260506174506 | 56 | 243 | 5.0 | 13.0 | 0.00 | 0.00 | 0.00 | 26 | 1015.1 |
| 20260506173002 | 54 | 139 | 3.0 | 13.0 | 0.00 | 0.00 | 0.00 | 25 | 1015.4 |
| 20260506171604 | 54 | 240 | 5.0 | 13.0 | 0.00 | 0.00 | 0.00 | 29 | 1015.6 |
| 20260506170059 | 53 | 223 | 6.0 | 11.0 | 0.00 | 0.00 | 0.00 | 29 | 1016.0 |
| 20260506164557 | 52 | 230 | 4.0 | 10.0 | 0.00 | 0.00 | 0.00 | 34 | 1016.2 |
| 20260506163048 | 51 | 186 | 4.0 | 10.0 | 0.00 | 0.00 | 0.00 | 36 | 1016.3 |
| 20260506161542 | 49 | 162 | 3.0 | 8.0 | 0.00 | 0.00 | 0.00 | 39 | 1016.6 |
| 20260506160041 | 49 | 160 | 5.0 | 8.0 | 0.00 | 0.00 | 0.00 | 40 | 1016.7 |
| 20260506154532 | 47 | 198 | 4.0 | 7.0 | 0.00 | 0.00 | 0.00 | 43 | 1017.1 |
| 20260506153027 | 45 | 217 | 4.0 | 8.0 | 0.00 | 0.00 | 0.00 | 46 | 1017.4 |
| 20260506151531 | 44 | 213 | 3.0 | 7.0 | 0.00 | 0.00 | 0.00 | 46 | 1017.6 |
| 20260506150022 | 43 | 240 | 4.0 | 7.0 | 0.00 | 0.00 | 0.00 | 48 | 1017.7 |
| 20260506144515 | 42 | 261 | 1.0 | 6.0 | 0.00 | 0.00 | 0.00 | 48 | 1017.8 |
| 20260506143017 | 42 | 188 | 1.0 | 4.0 | 0.00 | 0.00 | 0.00 | 47 | 1018.0 |
| 20260506141509 | 40 | 154 | 0.0 | 3.0 | 0.00 | 0.00 | 0.00 | 47 | 1018.2 |
| 20260506140008 | 39 | 172 | 0.0 | 2.0 | 0.00 | 0.00 | 0.00 | 47 | 1018.3 |
| 20260506134501 | 36 | 339 | 0.0 | 0.0 | 0.00 | 0.00 | 0.00 | 55 | 1018.4 |
| 20260506133103 | 31 | 338 | 0.0 | 0.0 | 0.00 | 0.00 | 0.00 | 59 | 1018.4 |
| 20260506131552 | 28 | 346 | 0.0 | 0.0 | 0.00 | 0.00 | 0.00 | 64 | 1018.3 |
| 20260506130050 | 26 | 346 | 0.0 | 1.0 | 0.00 | 0.00 | 0.00 | 65 | 1018.5 |
| 20260506124542 | 24 | 350 | 0.0 | 1.0 | 0.00 | 0.00 | 0.00 | 68 | 1018.7 |
| 20260506123040 | 21 | 350 | 0.0 | 1.0 | 0.00 | 0.00 | 0.00 | 70 | 1018.7 |
| 20260506121542 | 20 | 2 | 0.0 | 3.0 | 0.00 | 0.00 | 0.00 | 72 | 1018.8 |
| 20260506120039 | 19 | 320 | 0.0 | 0.0 | 0.00 | 0.00 | 0.00 | 74 | 1018.9 |
| 20260506114534 | 18 | 323 | 0.0 | 0.0 | 0.00 | 0.00 | 0.00 | 73 | 1019.0 |
| 20260506113042 | 18 | 324 | 0.0 | 0.0 | 0.00 | 0.00 | 0.00 | 74 | 1019.1 |
| 20260506111531 | 18 | 300 | 0.0 | 0.0 | 0.00 | 0.00 | 0.00 | 71 | 1019.4 |
| 20260506110034 | 19 | 286 | 0.0 | 0.0 | 0.00 | 0.00 | 0.00 | 73 | 1019.5 |
| 20260506104525 | 18 | 294 | 0.0 | 0.0 | 0.00 | 0.00 | 0.00 | 72 | 1019.6 |
| 20260506103030 | 18 | 294 | 0.0 | 0.0 | 0.00 | 0.00 | 0.00 | 72 | 1019.7 |
| 20260506101533 | 19 | 294 | 0.0 | 0.0 | 0.00 | 0.00 | 0.00 | 71 | 1019.8 |
| 20260506100030 | 19 | 294 | 0.0 | 1.0 | 0.00 | 0.00 | 0.00 | 71 | 1020.1 |
| 20260506094519 | 19 | 300 | 0.0 | 1.0 | 0.00 | 0.00 | 0.00 | 71 | 1020.2 |
| 20260506093018 | 19 | 300 | 0.0 | 2.0 | 0.00 | 0.00 | 0.00 | 71 | 1020.3 |
| 20260506091518 | 18 | 293 | 0.0 | 0.0 | 0.00 | 0.00 | 0.00 | 71 | 1020.3 |
| 20260506090012 | 19 | 293 | 0.0 | 0.0 | 0.00 | 0.00 | 0.00 | 68 | 1020.4 |
| 20260506084510 | 20 | 293 | 0.0 | 2.0 | 0.00 | 0.00 | 0.00 | 68 | 1020.5 |
| 20260506083009 | 20 | 277 | 0.0 | 0.0 | 0.00 | 0.00 | 0.00 | 68 | 1020.6 |
| 20260506081502 | 20 | 295 | 0.0 | 0.0 | 0.00 | 0.00 | 0.00 | 69 | 1020.7 |
| 20260506073055 | 21 | 288 | 0.0 | 0.0 | 0.00 | 0.00 | 0.00 | 65 | 1021.0 |
| 20260506071554 | 22 | 288 | 0.0 | 0.0 | 0.00 | 0.00 | 0.00 | 65 | 1021.0 |
| 20260506061543 | 23 | 260 | 0.0 | 0.0 | 0.00 | 0.00 | 0.00 | 61 | 1021.3 |
| 20260506044533 | 25 | 286 | 0.0 | 1.0 | 0.00 | 0.00 | 0.00 | 57 | 1021.4 |
| 20260506043028 | 26 | 286 | 1.0 | 1.0 | 0.00 | 0.00 | 0.00 | 56 | 1021.4 |
| 20260506041527 | 27 | 293 | 0.0 | 1.0 | 0.00 | 0.00 | 0.00 | 55 | 1021.5 |
| 20260506040035 | 27 | 297 | 0.0 | 1.0 | 0.00 | 0.00 | 0.00 | 52 | 1021.6 |
| 20260506034522 | 29 | 297 | 0.0 | 1.0 | 0.00 | 0.00 | 0.00 | 50 | 1021.4 |
| 20260506033050 | 30 | 357 | 0.0 | 1.0 | 0.00 | 0.00 | 0.00 | 48 | 1021.4 |
| 20260506031547 | 33 | 328 | 0.0 | 1.0 | 0.00 | 0.00 | 0.00 | 46 | 1021.3 |
| 20260506030015 | 37 | 360 | 1.0 | 3.0 | 0.00 | 0.00 | 0.00 | 42 | 1021.2 |
| 20260506024515 | 39 | 18 | 2.0 | 3.0 | 0.00 | 0.00 | 0.00 | 40 | 1021.3 |
| 20260506023056 | 42 | 7 | 2.0 | 6.0 | 0.00 | 0.00 | 0.00 | 38 | 1021.3 |
| 20260506021554 | 44 | 25 | 7.0 | 11.0 | 0.00 | 0.00 | 0.00 | 36 | 1021.1 |
| 20260506020042 | 44 | 22 | 8.0 | 12.0 | 0.00 | 0.00 | 0.00 | 36 | 1021.0 |
| 20260506014544 | 45 | 22 | 10.0 | 17.0 | 0.00 | 0.00 | 0.00 | 35 | 1021.0 |
| 20260506013039 | 46 | 352 | 9.0 | 16.0 | 0.00 | 0.00 | 0.00 | 34 | 1021.0 |
| 20260506011539 | 46 | 25 | 12.0 | 18.0 | 0.00 | 0.00 | 0.00 | 33 | 1020.9 |
| 20260506010047 | 47 | 36 | 13.0 | 19.0 | 0.00 | 0.00 | 0.00 | 33 | 1020.8 |
| 20260506004539 | 48 | 346 | 10.0 | 18.0 | 0.00 | 0.00 | 0.00 | 32 | 1020.8 |
| 20260506003036 | 48 | 22 | 13.0 | 20.0 | 0.00 | 0.00 | 0.00 | 33 | 1020.7 |
| 20260506001635 | 48 | 20 | 14.0 | 19.0 | 0.00 | 0.00 | 0.00 | 33 | 1020.7 |
| 20260506000032 | 49 | 347 | 8.0 | 21.0 | 0.00 | 0.00 | 0.00 | 32 | 1020.6 |
| 20260505234554 | 49 | 16 | 17.0 | 25.0 | 0.00 | 0.00 | 0.00 | 32 | 1020.7 |
| 20260505233037 | 49 | 338 | 8.0 | 20.0 | 0.00 | 0.00 | 0.00 | 32 | 1020.7 |
| 20260505231532 | 49 | 337 | 12.0 | 23.0 | 0.00 | 0.00 | 0.00 | 32 | 1020.7 |
| 20260505224558 | 49 | 12 | 14.0 | 20.0 | 0.00 | 0.00 | 0.00 | 32 | 1020.7 |
| 20260505223055 | 49 | 323 | 12.0 | 18.0 | 0.00 | 0.00 | 0.00 | 32 | 1020.8 |
| 20260505221555 | 49 | 327 | 11.0 | 19.0 | 0.00 | 0.00 | 0.00 | 31 | 1020.8 |
| 20260505220053 | 49 | 327 | 8.0 | 20.0 | 0.00 | 0.00 | 0.00 | 31 | 1020.7 |
| 20260505214613 | 49 | 338 | 12.0 | 20.0 | 0.00 | 0.00 | 0.00 | 30 | 1020.6 |
| 20260505213059 | 49 | 332 | 11.0 | 22.0 | 0.00 | 0.00 | 0.00 | 32 | 1020.6 |
| 20260505211549 | 49 | 352 | 10.0 | 23.0 | 0.00 | 0.00 | 0.00 | 33 | 1020.7 |
| 20260505210056 | 49 | 5 | 15.0 | 21.0 | 0.00 | 0.00 | 0.00 | 32 | 1020.7 |
| 20260505204556 | 49 | 311 | 7.0 | 24.0 | 0.00 | 0.00 | 0.00 | 34 | 1020.9 |
| 20260505203051 | 49 | 328 | 12.0 | 22.0 | 0.00 | 0.00 | 0.00 | 35 | 1021.0 |
| 20260505201545 | 49 | 345 | 14.0 | 21.0 | 0.00 | 0.00 | 0.00 | 35 | 1021.1 |
| 20260505200058 | 48 | 340 | 14.0 | 24.0 | 0.00 | 0.00 | 0.00 | 35 | 1021.2 |
| 20260505194548 | 49 | 4 | 14.0 | 22.0 | 0.00 | 0.00 | 0.00 | 35 | 1021.2 |
| 20260505193010 | 49 | 338 | 12.0 | 22.0 | 0.00 | 0.00 | 0.00 | 35 | 1021.1 |
| 20260505191509 | 47 | 310 | 13.0 | 23.0 | 0.00 | 0.00 | 0.00 | 33 | 1021.2 |